Year,Month,Day,Hour,Minute,Value (Times are PST for temperature in C)
2018,07,16,00,00,22.70
2018,07,16,00,01,22.70
2018,07,16,00,02,22.70
2018,07,16,00,03,22.70
2018,07,16,00,04,22.70
2018,07,16,00,05,22.70
2018,07,16,00,06,22.70
2018,07,16,00,07,22.70
2018,07,16,00,08,22.70
2018,07,16,00,09,22.70
2018,07,16,00,10,22.70
2018,07,16,00,11,22.80
2018,07,16,00,12,22.80
2018,07,16,00,13,22.80
2018,07,16,00,14,22.80
2018,07,16,00,15,22.90
2018,07,16,00,16,22.90
2018,07,16,00,17,22.90
2018,07,16,00,18,22.90
2018,07,16,00,19,22.80
2018,07,16,00,20,22.80
2018,07,16,00,21,22.80
2018,07,16,00,22,22.70
2018,07,16,00,23,22.70
2018,07,16,00,24,22.70
2018,07,16,00,25,22.70
2018,07,16,00,26,22.70
2018,07,16,00,27,22.60
2018,07,16,00,28,22.60
2018,07,16,00,29,22.50
2018,07,16,00,30,22.50
2018,07,16,00,31,22.40
2018,07,16,00,32,22.40
2018,07,16,00,33,22.40
2018,07,16,00,34,22.30
2018,07,16,00,35,22.30
2018,07,16,00,36,22.20
2018,07,16,00,37,22.20
2018,07,16,00,38,22.10
2018,07,16,00,39,22.10
2018,07,16,00,40,22.00
2018,07,16,00,41,22.00
2018,07,16,00,42,21.90
2018,07,16,00,43,21.90
2018,07,16,00,44,21.90
2018,07,16,00,45,21.80
2018,07,16,00,46,21.80
2018,07,16,00,47,21.80
2018,07,16,00,48,21.70
2018,07,16,00,49,21.70
2018,07,16,00,50,21.70
2018,07,16,00,51,21.70
2018,07,16,00,52,21.70
2018,07,16,00,53,21.70
2018,07,16,00,54,21.70
2018,07,16,00,55,21.60
2018,07,16,00,56,21.60
2018,07,16,00,57,21.60
2018,07,16,00,58,21.50
2018,07,16,00,59,21.50
2018,07,16,01,00,21.50
2018,07,16,01,01,21.40
2018,07,16,01,02,21.40
2018,07,16,01,03,21.40
2018,07,16,01,04,21.40
2018,07,16,01,05,21.40
2018,07,16,01,06,21.40
2018,07,16,01,07,21.40
2018,07,16,01,08,21.40
2018,07,16,01,09,21.40
2018,07,16,01,10,21.30
2018,07,16,01,11,21.30
2018,07,16,01,12,21.30
2018,07,16,01,13,21.30
2018,07,16,01,14,21.30
2018,07,16,01,15,21.30
2018,07,16,01,16,21.30
2018,07,16,01,17,21.30
2018,07,16,01,18,21.30
2018,07,16,01,19,21.30
2018,07,16,01,20,21.30
2018,07,16,01,21,21.30
2018,07,16,01,22,21.30
2018,07,16,01,23,21.30
2018,07,16,01,24,21.30
2018,07,16,01,25,21.30
2018,07,16,01,26,21.30
2018,07,16,01,27,21.30
2018,07,16,01,28,21.30
2018,07,16,01,29,21.30
2018,07,16,01,30,21.30
2018,07,16,01,31,21.30
2018,07,16,01,32,21.30
2018,07,16,01,33,21.30
2018,07,16,01,34,21.30
2018,07,16,01,35,21.30
2018,07,16,01,36,21.30
2018,07,16,01,37,21.30
2018,07,16,01,38,21.30
2018,07,16,01,39,21.30
2018,07,16,01,40,21.30
2018,07,16,01,41,21.20
2018,07,16,01,42,21.20
2018,07,16,01,43,21.20
2018,07,16,01,44,21.20
2018,07,16,01,45,21.10
2018,07,16,01,46,21.10
2018,07,16,01,47,21.00
2018,07,16,01,48,21.00
2018,07,16,01,49,21.00
2018,07,16,01,50,20.90
2018,07,16,01,51,20.90
2018,07,16,01,52,20.90
2018,07,16,01,53,20.90
2018,07,16,01,54,20.90
2018,07,16,01,55,20.90
2018,07,16,01,56,20.90
2018,07,16,01,57,20.90
2018,07,16,01,58,20.90
2018,07,16,01,59,20.80
2018,07,16,02,00,20.80
2018,07,16,02,01,20.80
2018,07,16,02,02,20.80
2018,07,16,02,03,20.80
2018,07,16,02,04,20.80
2018,07,16,02,05,20.80
2018,07,16,02,06,20.80
2018,07,16,02,07,20.80
2018,07,16,02,08,20.80
2018,07,16,02,09,20.80
2018,07,16,02,10,20.70
2018,07,16,02,11,20.70
2018,07,16,02,12,20.70
2018,07,16,02,13,20.70
2018,07,16,02,14,20.60
2018,07,16,02,15,20.60
2018,07,16,02,16,20.60
2018,07,16,02,17,20.60
2018,07,16,02,18,20.60
2018,07,16,02,19,20.60
2018,07,16,02,20,20.60
2018,07,16,02,21,20.60
2018,07,16,02,22,20.60
2018,07,16,02,23,20.50
2018,07,16,02,24,20.50
2018,07,16,02,25,20.50
2018,07,16,02,26,20.40
2018,07,16,02,27,20.40
2018,07,16,02,28,20.40
2018,07,16,02,29,20.30
2018,07,16,02,30,20.30
2018,07,16,02,31,20.30
2018,07,16,02,32,20.30
2018,07,16,02,33,20.30
2018,07,16,02,34,20.30
2018,07,16,02,35,20.30
2018,07,16,02,36,20.30
2018,07,16,02,37,20.30
2018,07,16,02,38,20.30
2018,07,16,02,39,20.30
2018,07,16,02,40,20.30
2018,07,16,02,41,20.30
2018,07,16,02,42,20.20
2018,07,16,02,43,20.20
2018,07,16,02,44,20.20
2018,07,16,02,45,20.10
2018,07,16,02,46,20.10
2018,07,16,02,47,20.00
2018,07,16,02,48,20.00
2018,07,16,02,49,19.90
2018,07,16,02,50,19.90
2018,07,16,02,51,19.90
2018,07,16,02,52,19.80
2018,07,16,02,53,19.80
2018,07,16,02,54,19.80
2018,07,16,02,55,19.80
2018,07,16,02,56,19.80
2018,07,16,02,57,19.80
2018,07,16,02,58,19.80
2018,07,16,02,59,19.90
2018,07,16,03,00,19.90
2018,07,16,03,01,19.90
2018,07,16,03,02,19.90
2018,07,16,03,03,20.00
2018,07,16,03,04,20.00
2018,07,16,03,05,20.00
2018,07,16,03,06,19.90
2018,07,16,03,07,19.90
2018,07,16,03,08,19.90
2018,07,16,03,09,19.90
2018,07,16,03,10,19.90
2018,07,16,03,11,19.90
2018,07,16,03,12,20.00
2018,07,16,03,13,20.10
2018,07,16,03,14,20.10
2018,07,16,03,15,20.20
2018,07,16,03,16,20.20
2018,07,16,03,17,20.30
2018,07,16,03,18,20.30
2018,07,16,03,19,20.40
2018,07,16,03,20,20.40
2018,07,16,03,21,20.50
2018,07,16,03,22,20.60
2018,07,16,03,23,20.70
2018,07,16,03,24,20.80
2018,07,16,03,25,20.90
2018,07,16,03,26,20.90
2018,07,16,03,27,21.00
2018,07,16,03,28,21.00
2018,07,16,03,29,21.10
2018,07,16,03,30,21.10
2018,07,16,03,31,21.10
2018,07,16,03,32,21.20
2018,07,16,03,33,21.10
2018,07,16,03,34,21.10
2018,07,16,03,35,21.10
2018,07,16,03,36,21.10
2018,07,16,03,37,21.10
2018,07,16,03,38,21.00
2018,07,16,03,39,21.10
2018,07,16,03,40,21.10
2018,07,16,03,41,21.10
2018,07,16,03,42,21.10
2018,07,16,03,43,21.10
2018,07,16,03,44,21.10
2018,07,16,03,45,21.10
2018,07,16,03,46,21.10
2018,07,16,03,47,21.10
2018,07,16,03,48,21.10
2018,07,16,03,49,21.10
2018,07,16,03,50,21.00
2018,07,16,03,51,21.00
2018,07,16,03,52,20.90
2018,07,16,03,53,20.90
2018,07,16,03,54,20.90
2018,07,16,03,55,20.90
2018,07,16,03,56,20.80
2018,07,16,03,57,20.80
2018,07,16,03,58,20.80
2018,07,16,03,59,20.70
2018,07,16,04,00,20.70
2018,07,16,04,01,20.60
2018,07,16,04,02,20.60
2018,07,16,04,03,20.60
2018,07,16,04,04,20.50
2018,07,16,04,05,20.50
2018,07,16,04,06,20.40
2018,07,16,04,07,20.40
2018,07,16,04,08,20.40
2018,07,16,04,09,20.40
2018,07,16,04,10,20.30
2018,07,16,04,11,20.30
2018,07,16,04,12,20.30
2018,07,16,04,13,20.30
2018,07,16,04,14,20.20
2018,07,16,04,15,20.20
2018,07,16,04,16,20.10
2018,07,16,04,17,20.10
2018,07,16,04,18,20.10
2018,07,16,04,19,20.00
2018,07,16,04,20,20.00
2018,07,16,04,21,19.90
2018,07,16,04,22,19.90
2018,07,16,04,23,19.90
2018,07,16,04,24,19.90
2018,07,16,04,25,19.80
2018,07,16,04,26,19.80
2018,07,16,04,27,19.80
2018,07,16,04,28,19.70
2018,07,16,04,29,19.70
2018,07,16,04,30,19.70
2018,07,16,04,31,19.70
2018,07,16,04,32,19.60
2018,07,16,04,33,19.60
2018,07,16,04,34,19.60
2018,07,16,04,35,19.50
2018,07,16,04,36,19.50
2018,07,16,04,37,19.50
2018,07,16,04,38,19.50
2018,07,16,04,39,19.50
2018,07,16,04,40,19.40
2018,07,16,04,41,19.40
2018,07,16,04,42,19.40
2018,07,16,04,43,19.40
2018,07,16,04,44,19.40
2018,07,16,04,45,19.40
2018,07,16,04,46,19.40
2018,07,16,04,47,19.40
2018,07,16,04,48,19.40
2018,07,16,04,49,19.40
2018,07,16,04,50,19.40
2018,07,16,04,51,19.40
2018,07,16,04,52,19.30
2018,07,16,04,53,19.30
2018,07,16,04,54,19.30
2018,07,16,04,55,19.30
2018,07,16,04,56,19.30
2018,07,16,04,57,19.30
2018,07,16,04,58,19.20
2018,07,16,04,59,19.20
2018,07,16,05,00,19.20
2018,07,16,05,01,19.20
2018,07,16,05,02,19.20
2018,07,16,05,03,19.10
2018,07,16,05,04,19.10
2018,07,16,05,05,19.10
2018,07,16,05,06,19.10
2018,07,16,05,07,19.10
2018,07,16,05,08,19.00
2018,07,16,05,09,19.00
2018,07,16,05,10,18.90
2018,07,16,05,11,18.90
2018,07,16,05,12,18.90
2018,07,16,05,13,18.90
2018,07,16,05,14,18.80
2018,07,16,05,15,18.80
2018,07,16,05,16,18.80
2018,07,16,05,17,18.80
2018,07,16,05,18,18.70
2018,07,16,05,19,18.70
2018,07,16,05,20,18.70
2018,07,16,05,21,18.70
2018,07,16,05,22,18.70
2018,07,16,05,23,18.60
2018,07,16,05,24,18.60
2018,07,16,05,25,18.60
2018,07,16,05,26,18.60
2018,07,16,05,27,18.60
2018,07,16,05,28,18.50
2018,07,16,05,29,18.50
2018,07,16,05,30,18.50
2018,07,16,05,31,18.40
2018,07,16,05,32,18.40
2018,07,16,05,33,18.40
2018,07,16,05,34,18.40
2018,07,16,05,35,18.30
2018,07,16,05,36,18.30
2018,07,16,05,37,18.30
2018,07,16,05,38,18.30
2018,07,16,05,39,18.30
2018,07,16,05,40,18.30
2018,07,16,05,41,18.20
2018,07,16,05,42,18.20
2018,07,16,05,43,18.20
2018,07,16,05,44,18.20
2018,07,16,05,45,18.20
2018,07,16,05,46,18.20
2018,07,16,05,47,18.20
2018,07,16,05,48,18.20
2018,07,16,05,49,18.20
2018,07,16,05,50,18.10
2018,07,16,05,51,18.10
2018,07,16,05,52,18.10
2018,07,16,05,53,18.10
2018,07,16,05,54,18.10
2018,07,16,05,55,18.10
2018,07,16,05,56,18.10
2018,07,16,05,57,18.10
2018,07,16,05,58,18.10
2018,07,16,05,59,18.10
2018,07,16,06,00,18.20
2018,07,16,06,01,18.20
2018,07,16,06,02,18.20
2018,07,16,06,03,18.20
2018,07,16,06,04,18.20
2018,07,16,06,05,18.20
2018,07,16,06,06,18.20
2018,07,16,06,07,18.20
2018,07,16,06,08,18.20
2018,07,16,06,09,18.20
2018,07,16,06,10,18.20
2018,07,16,06,11,18.20
2018,07,16,06,12,18.20
2018,07,16,06,13,18.20
2018,07,16,06,14,18.20
2018,07,16,06,15,18.20
2018,07,16,06,16,18.20
2018,07,16,06,17,18.20
2018,07,16,06,18,18.20
2018,07,16,06,19,18.20
2018,07,16,06,20,18.20
2018,07,16,06,21,18.30
2018,07,16,06,22,18.30
2018,07,16,06,23,18.30
2018,07,16,06,24,18.30
2018,07,16,06,25,18.30
2018,07,16,06,26,18.30
2018,07,16,06,27,18.30
2018,07,16,06,28,18.30
2018,07,16,06,29,18.30
2018,07,16,06,30,18.30
2018,07,16,06,31,18.30
2018,07,16,06,32,18.30
2018,07,16,06,33,18.30
2018,07,16,06,34,18.40
2018,07,16,06,35,18.40
2018,07,16,06,36,18.40
2018,07,16,06,37,18.40
2018,07,16,06,38,18.40
2018,07,16,06,39,18.40
2018,07,16,06,40,18.40
2018,07,16,06,41,18.40
2018,07,16,06,42,18.40
2018,07,16,06,43,18.40
2018,07,16,06,44,18.40
2018,07,16,06,45,18.40
2018,07,16,06,46,18.50
2018,07,16,06,47,18.50
2018,07,16,06,48,18.50
2018,07,16,06,49,18.50
2018,07,16,06,50,18.60
2018,07,16,06,51,18.60
2018,07,16,06,52,18.60
2018,07,16,06,53,18.60
2018,07,16,06,54,18.60
2018,07,16,06,55,18.60
2018,07,16,06,56,18.60
2018,07,16,06,57,18.60
2018,07,16,06,58,18.60
2018,07,16,06,59,18.60
2018,07,16,07,00,18.60
2018,07,16,07,01,18.60
2018,07,16,07,02,18.60
2018,07,16,07,03,18.60
2018,07,16,07,04,18.60
2018,07,16,07,05,18.60
2018,07,16,07,06,18.60
2018,07,16,07,07,18.60
2018,07,16,07,08,18.60
2018,07,16,07,09,18.60
2018,07,16,07,10,18.60
2018,07,16,07,11,18.60
2018,07,16,07,12,18.60
2018,07,16,07,13,18.60
2018,07,16,07,14,18.60
2018,07,16,07,15,18.60
2018,07,16,07,16,18.60
2018,07,16,07,17,18.60
2018,07,16,07,18,18.60
2018,07,16,07,19,18.60
2018,07,16,07,20,18.60
2018,07,16,07,21,18.60
2018,07,16,07,22,18.60
2018,07,16,07,23,18.60
2018,07,16,07,24,18.60
2018,07,16,07,25,18.60
2018,07,16,07,26,18.60
2018,07,16,07,27,18.60
2018,07,16,07,28,18.60
2018,07,16,07,29,18.60
2018,07,16,07,30,18.60
2018,07,16,07,31,18.70
2018,07,16,07,32,18.70
2018,07,16,07,33,18.70
2018,07,16,07,34,18.70
2018,07,16,07,35,18.80
2018,07,16,07,36,18.80
2018,07,16,07,37,18.80
2018,07,16,07,38,18.80
2018,07,16,07,39,18.90
2018,07,16,07,40,18.90
2018,07,16,07,41,18.90
2018,07,16,07,42,19.00
2018,07,16,07,43,19.00
2018,07,16,07,44,19.10
2018,07,16,07,45,19.10
2018,07,16,07,46,19.10
2018,07,16,07,47,19.20
2018,07,16,07,48,19.20
2018,07,16,07,49,19.20
2018,07,16,07,50,19.20
2018,07,16,07,51,19.20
2018,07,16,07,52,19.20
2018,07,16,07,53,19.20
2018,07,16,07,54,19.20
2018,07,16,07,55,19.20
2018,07,16,07,56,19.20
2018,07,16,07,57,19.30
2018,07,16,07,58,19.30
2018,07,16,07,59,19.40
2018,07,16,08,00,19.40
2018,07,16,08,01,19.40
2018,07,16,08,02,19.30
2018,07,16,08,03,19.30
2018,07,16,08,04,19.40
2018,07,16,08,05,19.40
2018,07,16,08,06,19.40
2018,07,16,08,07,19.40
2018,07,16,08,08,19.50
2018,07,16,08,09,19.50
2018,07,16,08,10,19.50
2018,07,16,08,11,19.50
2018,07,16,08,12,19.60
2018,07,16,08,13,19.60
2018,07,16,08,14,19.60
2018,07,16,08,15,19.60
2018,07,16,08,16,19.70
2018,07,16,08,17,19.70
2018,07,16,08,18,19.70
2018,07,16,08,19,19.80
2018,07,16,08,20,19.80
2018,07,16,08,21,19.80
2018,07,16,08,22,19.80
2018,07,16,08,23,19.80
2018,07,16,08,24,19.90
2018,07,16,08,25,19.90
2018,07,16,08,26,19.80
2018,07,16,08,27,19.80
2018,07,16,08,28,19.80
2018,07,16,08,29,19.80
2018,07,16,08,30,19.80
2018,07,16,08,31,19.80
2018,07,16,08,32,19.80
2018,07,16,08,33,19.70
2018,07,16,08,34,19.70
2018,07,16,08,35,19.70
2018,07,16,08,36,19.70
2018,07,16,08,37,19.80
2018,07,16,08,38,19.80
2018,07,16,08,39,19.80
2018,07,16,08,40,19.70
2018,07,16,08,41,19.70
2018,07,16,08,42,19.70
2018,07,16,08,43,19.60
2018,07,16,08,44,19.60
2018,07,16,08,45,19.60
2018,07,16,08,46,19.70
2018,07,16,08,47,19.70
2018,07,16,08,48,19.70
2018,07,16,08,49,19.70
2018,07,16,08,50,19.70
2018,07,16,08,51,19.70
2018,07,16,08,52,19.70
2018,07,16,08,53,19.70
2018,07,16,08,54,19.80
2018,07,16,08,55,19.90
2018,07,16,08,56,19.90
2018,07,16,08,57,19.90
2018,07,16,08,58,19.80
2018,07,16,08,59,19.80
2018,07,16,09,00,19.80
2018,07,16,09,01,19.80
2018,07,16,09,02,19.80
2018,07,16,09,03,19.80
2018,07,16,09,04,19.90
2018,07,16,09,05,20.00
2018,07,16,09,06,20.10
2018,07,16,09,07,20.20
2018,07,16,09,08,20.30
2018,07,16,09,09,20.40
2018,07,16,09,10,20.50
2018,07,16,09,11,20.50
2018,07,16,09,12,20.60
2018,07,16,09,13,20.60
2018,07,16,09,14,20.60
2018,07,16,09,15,20.50
2018,07,16,09,16,20.40
2018,07,16,09,17,20.30
2018,07,16,09,18,20.20
2018,07,16,09,19,20.20
2018,07,16,09,20,20.10
2018,07,16,09,21,20.10
2018,07,16,09,22,20.10
2018,07,16,09,23,20.10
2018,07,16,09,24,20.10
2018,07,16,09,25,20.10
2018,07,16,09,26,20.20
2018,07,16,09,27,20.20
2018,07,16,09,28,20.20
2018,07,16,09,29,20.20
2018,07,16,09,30,20.20
2018,07,16,09,31,20.30
2018,07,16,09,32,20.30
2018,07,16,09,33,20.30
2018,07,16,09,34,20.40
2018,07,16,09,35,20.40
2018,07,16,09,36,20.50
2018,07,16,09,37,20.50
2018,07,16,09,38,20.50
2018,07,16,09,39,20.60
2018,07,16,09,40,20.60
2018,07,16,09,41,20.60
2018,07,16,09,42,20.70
2018,07,16,09,43,20.70
2018,07,16,09,44,20.80
2018,07,16,09,45,20.80
2018,07,16,09,46,20.90
2018,07,16,09,47,21.00
2018,07,16,09,48,21.00
2018,07,16,09,49,21.10
2018,07,16,09,50,21.20
2018,07,16,09,51,21.20
2018,07,16,09,52,21.30
2018,07,16,09,53,21.30
2018,07,16,09,54,21.40
2018,07,16,09,55,21.50
2018,07,16,09,56,21.50
2018,07,16,09,57,21.60
2018,07,16,09,58,21.60
2018,07,16,09,59,21.60
2018,07,16,10,00,21.70
2018,07,16,10,01,21.70
2018,07,16,10,02,21.70
2018,07,16,10,03,21.70
2018,07,16,10,04,21.70
2018,07,16,10,05,21.70
2018,07,16,10,06,21.70
2018,07,16,10,07,21.60
2018,07,16,10,08,21.60
2018,07,16,10,09,21.70
2018,07,16,10,10,21.70
2018,07,16,10,11,21.80
2018,07,16,10,12,21.80
2018,07,16,10,13,22.00
2018,07,16,10,14,22.10
2018,07,16,10,15,22.20
2018,07,16,10,16,22.10
2018,07,16,10,17,22.20
2018,07,16,10,18,22.20
2018,07,16,10,19,22.20
2018,07,16,10,20,22.30
2018,07,16,10,21,22.30
2018,07,16,10,22,22.40
2018,07,16,10,23,22.50
2018,07,16,10,24,22.50
2018,07,16,10,25,22.50
2018,07,16,10,26,22.40
2018,07,16,10,27,22.30
2018,07,16,10,28,22.30
2018,07,16,10,29,22.30
2018,07,16,10,30,22.20
2018,07,16,10,31,22.20
2018,07,16,10,32,22.20
2018,07,16,10,33,22.20
2018,07,16,10,34,22.10
2018,07,16,10,35,22.20
2018,07,16,10,36,22.10
2018,07,16,10,37,22.10
2018,07,16,10,38,22.10
2018,07,16,10,39,22.20
2018,07,16,10,40,22.20
2018,07,16,10,41,22.30
2018,07,16,10,42,22.30
2018,07,16,10,43,22.30
2018,07,16,10,44,22.30
2018,07,16,10,45,22.20
2018,07,16,10,46,22.20
2018,07,16,10,47,22.20
2018,07,16,10,48,22.30
2018,07,16,10,49,22.20
2018,07,16,10,50,22.20
2018,07,16,10,51,22.10
2018,07,16,10,52,22.10
2018,07,16,10,53,22.20
2018,07,16,10,54,22.20
2018,07,16,10,55,22.20
2018,07,16,10,56,22.30
2018,07,16,10,57,22.30
2018,07,16,10,58,22.30
2018,07,16,10,59,22.30
2018,07,16,11,00,22.30
2018,07,16,11,01,22.30
2018,07,16,11,02,22.30
2018,07,16,11,03,22.30
2018,07,16,11,04,22.40
2018,07,16,11,05,22.50
2018,07,16,11,06,22.60
2018,07,16,11,07,22.80
2018,07,16,11,08,22.90
2018,07,16,11,09,23.00
2018,07,16,11,10,23.10
2018,07,16,11,11,23.10
2018,07,16,11,12,23.10
2018,07,16,11,13,23.10
2018,07,16,11,14,23.10
2018,07,16,11,15,23.10
2018,07,16,11,16,23.10
2018,07,16,11,17,23.20
2018,07,16,11,18,23.40
2018,07,16,11,19,23.40
2018,07,16,11,20,23.30
2018,07,16,11,21,23.20
2018,07,16,11,22,23.10
2018,07,16,11,23,23.10
2018,07,16,11,24,23.10
2018,07,16,11,25,23.00
2018,07,16,11,26,23.00
2018,07,16,11,27,23.00
2018,07,16,11,28,23.00
2018,07,16,11,29,23.10
2018,07,16,11,30,23.20
2018,07,16,11,31,23.20
2018,07,16,11,32,23.20
2018,07,16,11,33,23.20
2018,07,16,11,34,23.20
2018,07,16,11,35,23.20
2018,07,16,11,36,23.20
2018,07,16,11,37,23.30
2018,07,16,11,38,23.40
2018,07,16,11,39,23.50
2018,07,16,11,40,23.50
2018,07,16,11,41,23.50
2018,07,16,11,42,23.60
2018,07,16,11,43,23.70
2018,07,16,11,44,23.70
2018,07,16,11,45,23.80
2018,07,16,11,46,23.80
2018,07,16,11,47,23.80
2018,07,16,11,48,23.80
2018,07,16,11,49,23.70
2018,07,16,11,50,23.70
2018,07,16,11,51,23.70
2018,07,16,11,52,23.70
2018,07,16,11,53,23.80
2018,07,16,11,54,23.80
2018,07,16,11,55,23.80
2018,07,16,11,56,23.80
2018,07,16,11,57,23.60
2018,07,16,11,58,23.50
2018,07,16,11,59,23.20
2018,07,16,12,00,23.00
2018,07,16,12,01,22.90
2018,07,16,12,02,22.80
2018,07,16,12,03,22.70
2018,07,16,12,04,22.70
2018,07,16,12,05,22.70
2018,07,16,12,06,22.70
2018,07,16,12,07,22.60
2018,07,16,12,08,22.60
2018,07,16,12,09,22.60
2018,07,16,12,10,22.60
2018,07,16,12,11,22.70
2018,07,16,12,12,22.80
2018,07,16,12,13,22.80
2018,07,16,12,14,22.90
2018,07,16,12,15,23.00
2018,07,16,12,16,23.00
2018,07,16,12,17,22.90
2018,07,16,12,18,22.90
2018,07,16,12,19,22.90
2018,07,16,12,20,22.90
2018,07,16,12,21,22.90
2018,07,16,12,22,22.90
2018,07,16,12,23,23.00
2018,07,16,12,24,23.10
2018,07,16,12,25,23.30
2018,07,16,12,26,23.50
2018,07,16,12,27,23.70
2018,07,16,12,28,23.80
2018,07,16,12,29,23.80
2018,07,16,12,30,23.80
2018,07,16,12,31,23.70
2018,07,16,12,32,23.60
2018,07,16,12,33,23.60
2018,07,16,12,34,23.70
2018,07,16,12,35,23.70
2018,07,16,12,36,23.70
2018,07,16,12,37,23.80
2018,07,16,12,38,23.70
2018,07,16,12,39,23.70
2018,07,16,12,40,23.70
2018,07,16,12,41,23.60
2018,07,16,12,42,23.70
2018,07,16,12,43,23.60
2018,07,16,12,44,23.60
2018,07,16,12,45,23.70
2018,07,16,12,46,23.80
2018,07,16,12,47,23.80
2018,07,16,12,48,23.90
2018,07,16,12,49,23.90
2018,07,16,12,50,24.10
2018,07,16,12,51,24.30
2018,07,16,12,52,24.30
2018,07,16,12,53,24.40
2018,07,16,12,54,24.50
2018,07,16,12,55,24.60
2018,07,16,12,56,24.70
2018,07,16,12,57,24.80
2018,07,16,12,58,24.90
2018,07,16,12,59,24.80
2018,07,16,13,00,24.70
2018,07,16,13,01,24.60
2018,07,16,13,02,24.60
2018,07,16,13,03,24.60
2018,07,16,13,04,24.50
2018,07,16,13,05,24.50
2018,07,16,13,06,24.50
2018,07,16,13,07,24.60
2018,07,16,13,08,24.50
2018,07,16,13,09,24.50
2018,07,16,13,10,24.50
2018,07,16,13,11,24.50
2018,07,16,13,12,24.40
2018,07,16,13,13,24.40
2018,07,16,13,14,24.40
2018,07,16,13,15,24.40
2018,07,16,13,16,24.30
2018,07,16,13,17,24.20
2018,07,16,13,18,24.10
2018,07,16,13,19,24.10
2018,07,16,13,20,24.20
2018,07,16,13,21,24.30
2018,07,16,13,22,24.30
2018,07,16,13,23,24.30
2018,07,16,13,24,24.40
2018,07,16,13,25,24.60
2018,07,16,13,26,24.70
2018,07,16,13,27,24.80
2018,07,16,13,28,24.80
2018,07,16,13,29,24.90
2018,07,16,13,30,24.80
2018,07,16,13,31,24.80
2018,07,16,13,32,24.80
2018,07,16,13,33,24.80
2018,07,16,13,34,24.80
2018,07,16,13,35,24.90
2018,07,16,13,36,25.00
2018,07,16,13,37,25.10
2018,07,16,13,38,25.10
2018,07,16,13,39,25.20
2018,07,16,13,40,25.30
2018,07,16,13,41,25.40
2018,07,16,13,42,25.60
2018,07,16,13,43,25.60
2018,07,16,13,44,25.70
2018,07,16,13,45,25.70
2018,07,16,13,46,25.60
2018,07,16,13,47,25.70
2018,07,16,13,48,25.70
2018,07,16,13,49,25.80
2018,07,16,13,50,26.00
2018,07,16,13,51,26.10
2018,07,16,13,52,26.20
2018,07,16,13,53,26.20
2018,07,16,13,54,26.20
2018,07,16,13,55,26.20
2018,07,16,13,56,26.30
2018,07,16,13,57,26.30
2018,07,16,13,58,26.30
2018,07,16,13,59,26.30
2018,07,16,14,00,26.30
2018,07,16,14,01,26.30
2018,07,16,14,02,26.30
2018,07,16,14,03,26.30
2018,07,16,14,04,26.30
2018,07,16,14,05,26.30
2018,07,16,14,06,26.30
2018,07,16,14,07,26.30
2018,07,16,14,08,26.30
2018,07,16,14,09,26.30
2018,07,16,14,10,26.20
2018,07,16,14,11,26.10
2018,07,16,14,12,26.10
2018,07,16,14,13,26.10
2018,07,16,14,14,26.10
2018,07,16,14,15,26.20
2018,07,16,14,16,26.20
2018,07,16,14,17,26.20
2018,07,16,14,18,26.30
2018,07,16,14,19,26.30
2018,07,16,14,20,26.30
2018,07,16,14,21,26.30
2018,07,16,14,22,26.40
2018,07,16,14,23,26.50
2018,07,16,14,24,26.60
2018,07,16,14,25,26.70
2018,07,16,14,26,26.70
2018,07,16,14,27,26.70
2018,07,16,14,28,26.70
2018,07,16,14,29,26.70
2018,07,16,14,30,26.70
2018,07,16,14,31,26.60
2018,07,16,14,32,26.50
2018,07,16,14,33,26.40
2018,07,16,14,34,26.30
2018,07,16,14,35,26.20
2018,07,16,14,36,26.20
2018,07,16,14,37,26.20
2018,07,16,14,38,26.20
2018,07,16,14,39,26.20
2018,07,16,14,40,26.30
2018,07,16,14,41,26.20
2018,07,16,14,42,26.20
2018,07,16,14,43,26.20
2018,07,16,14,44,26.20
2018,07,16,14,45,26.20
2018,07,16,14,46,26.40
2018,07,16,14,47,26.50
2018,07,16,14,48,26.60
2018,07,16,14,49,26.70
2018,07,16,14,50,26.80
2018,07,16,14,51,26.80
2018,07,16,14,52,26.80
2018,07,16,14,53,26.80
2018,07,16,14,54,26.70
2018,07,16,14,55,26.60
2018,07,16,14,56,26.50
2018,07,16,14,57,26.50
2018,07,16,14,58,26.50
2018,07,16,14,59,26.40
2018,07,16,15,00,26.30
2018,07,16,15,01,26.30
2018,07,16,15,02,26.40
2018,07,16,15,03,26.40
2018,07,16,15,04,26.50
2018,07,16,15,05,26.50
2018,07,16,15,06,26.60
2018,07,16,15,07,26.60
2018,07,16,15,08,26.60
2018,07,16,15,09,26.60
2018,07,16,15,10,26.70
2018,07,16,15,11,26.60
2018,07,16,15,12,26.60
2018,07,16,15,13,26.60
2018,07,16,15,14,26.60
2018,07,16,15,15,26.70
2018,07,16,15,16,26.70
2018,07,16,15,17,26.70
2018,07,16,15,18,26.70
2018,07,16,15,19,26.70
2018,07,16,15,20,26.70
2018,07,16,15,21,26.80
2018,07,16,15,22,26.80
2018,07,16,15,23,26.80
2018,07,16,15,24,26.80
2018,07,16,15,25,26.70
2018,07,16,15,26,26.70
2018,07,16,15,27,26.70
2018,07,16,15,28,26.80
2018,07,16,15,29,26.80
2018,07,16,15,30,26.80
2018,07,16,15,31,26.80
2018,07,16,15,32,26.70
2018,07,16,15,33,26.80
2018,07,16,15,34,26.80
2018,07,16,15,35,26.90
2018,07,16,15,36,26.90
2018,07,16,15,37,27.00
2018,07,16,15,38,27.00
2018,07,16,15,39,27.00
2018,07,16,15,40,27.00
2018,07,16,15,41,26.90
2018,07,16,15,42,26.90
2018,07,16,15,43,26.80
2018,07,16,15,44,26.80
2018,07,16,15,45,26.80
2018,07,16,15,46,26.90
2018,07,16,15,47,26.90
2018,07,16,15,48,26.80
2018,07,16,15,49,26.80
2018,07,16,15,50,26.70
2018,07,16,15,51,26.80
2018,07,16,15,52,26.80
2018,07,16,15,53,26.90
2018,07,16,15,54,26.90
2018,07,16,15,55,26.90
2018,07,16,15,56,27.00
2018,07,16,15,57,27.10
2018,07,16,15,58,27.20
2018,07,16,15,59,27.30
2018,07,16,16,00,27.40
2018,07,16,16,01,27.50
2018,07,16,16,02,27.60
2018,07,16,16,03,27.60
2018,07,16,16,04,27.60
2018,07,16,16,05,27.60
2018,07,16,16,06,27.70
2018,07,16,16,07,27.70
2018,07,16,16,08,27.70
2018,07,16,16,09,27.70
2018,07,16,16,10,27.70
2018,07,16,16,11,27.70
2018,07,16,16,12,27.80
2018,07,16,16,13,27.80
2018,07,16,16,14,27.70
2018,07,16,16,15,27.70
2018,07,16,16,16,27.70
2018,07,16,16,17,27.80
2018,07,16,16,18,27.80
2018,07,16,16,19,27.80
2018,07,16,16,20,27.80
2018,07,16,16,21,27.80
2018,07,16,16,22,27.80
2018,07,16,16,23,27.70
2018,07,16,16,24,27.70
2018,07,16,16,25,27.70
2018,07,16,16,26,27.70
2018,07,16,16,27,27.70
2018,07,16,16,28,27.60
2018,07,16,16,29,27.60
2018,07,16,16,30,27.60
2018,07,16,16,31,27.60
2018,07,16,16,32,27.60
2018,07,16,16,33,27.70
2018,07,16,16,34,27.80
2018,07,16,16,35,27.90
2018,07,16,16,36,28.00
2018,07,16,16,37,28.20
2018,07,16,16,38,28.20
2018,07,16,16,39,28.30
2018,07,16,16,40,28.30
2018,07,16,16,41,28.30
2018,07,16,16,42,28.20
2018,07,16,16,43,28.20
2018,07,16,16,44,28.20
2018,07,16,16,45,28.20
2018,07,16,16,46,28.20
2018,07,16,16,47,28.20
2018,07,16,16,48,28.10
2018,07,16,16,49,28.10
2018,07,16,16,50,28.00
2018,07,16,16,51,27.90
2018,07,16,16,52,27.70
2018,07,16,16,53,27.50
2018,07,16,16,54,27.30
2018,07,16,16,55,27.10
2018,07,16,16,56,26.90
2018,07,16,16,57,26.70
2018,07,16,16,58,26.60
2018,07,16,16,59,26.50
2018,07,16,17,00,26.30
2018,07,16,17,01,26.20
2018,07,16,17,02,26.10
2018,07,16,17,03,25.90
2018,07,16,17,04,25.90
2018,07,16,17,05,25.80
2018,07,16,17,06,25.70
2018,07,16,17,07,25.60
2018,07,16,17,08,25.50
2018,07,16,17,09,25.30
2018,07,16,17,10,25.20
2018,07,16,17,11,25.00
2018,07,16,17,12,24.90
2018,07,16,17,13,24.80
2018,07,16,17,14,24.70
2018,07,16,17,15,24.60
2018,07,16,17,16,24.60
2018,07,16,17,17,24.50
2018,07,16,17,18,24.50
2018,07,16,17,19,24.40